Weather History for Vacaville, CA

Change the Weather History Date:

Saturday, July 13, 2013

  Actual Average Record
Temperature  
Mean Temperature 75 °F -  
Max Temperature 95 °F 96 °F 109 °F (1972)
Min Temperature 55 °F 57 °F 51 °F (1951)
Cooling Degree Days 10    
Growing Degree Days 25 (Base 50)    
Moisture  
Dew Point 48 °F    
Average Humidity 46    
Maximum Humidity 84    
Minimum Humidity 12    
Precipitation  
Precipitation 0.00 in - - ()
Sea Level Pressure  
Sea Level Pressure 29.88 in    
Wind  
Wind Speed 5 mph (SW)    
Max Wind Speed 9 mph    
Max Gust Speed -    
Visibility 10 miles    
Events      
Averages and records for this station are not official NWS values.
T = Trace of Precipitation, MM = Missing Value Source: NWS Daily Summary

Daily Weather History Graph

Daily Weather History Graph

Search for Another Location

Airport:

Trip Planner

Search our weather history database for the weather conditions in past years. The results will help you decide how hot, cold, wet, or windy it might be!

Date:

Astronomy

Jul. 13, 2013 Rise Set
Actual Time 5:55 AM PDT 8:31 PM PDT
Civil Twilight 5:24 AM PDT 9:02 PM PDT
Nautical Twilight 4:45 AM PDT 9:41 PM PDT
Astronomical Twilight 4:02 AM PDT 10:24 PM PDT
Moon 11:11 AM PDT (7/13) 11:20 PM PDT (7/13)
Length of Visible Light 15h 38m
Length of Day
14h 36m
Waxing Crescent, 26% of the Moon is Illuminated
Jul 13
Waxing Crescent
Jul 15
First Quarter
Jul 22
Full
Jul 29
Last Quarter
Aug 6
New

Hourly Weather History & Observations

Time (PDT) Temp. Dew Point Humidity Pressure Visibility Wind Dir Wind Speed Gust Speed Precip Events Conditions
12:53 AM 63.0 °F 51.1 °F 65% 29.83 in 10.0 mi SW 8.1 mph - N/A   Clear
1:53 AM 61.0 °F 51.1 °F 70% 29.84 in 10.0 mi SW 6.9 mph - N/A   Clear
2:53 AM 57.9 °F 50.0 °F 75% 29.85 in 10.0 mi West 3.5 mph - N/A   Clear
3:53 AM 57.9 °F 52.0 °F 81% 29.86 in 10.0 mi SW 5.8 mph - N/A   Clear
4:53 AM 57.0 °F 51.1 °F 81% 29.87 in 10.0 mi SW 5.8 mph - N/A   Clear
5:53 AM 55.9 °F 51.1 °F 84% 29.88 in 10.0 mi SW 4.6 mph - N/A   Clear
6:53 AM 57.9 °F 51.1 °F 78% 29.91 in 10.0 mi Calm Calm - N/A   Clear
7:53 AM 64.0 °F 52.0 °F 65% 29.92 in 10.0 mi Calm Calm - N/A   Clear
8:53 AM 69.1 °F 53.1 °F 57% 29.94 in 10.0 mi Calm Calm - N/A   Clear
9:53 AM 73.0 °F 55.9 °F 55% 29.93 in 10.0 mi Variable 3.5 mph - N/A   Clear
10:53 AM 78.1 °F 55.0 °F 45% 29.94 in 10.0 mi Calm Calm - N/A   Clear
11:53 AM 82.9 °F 52.0 °F 34% 29.93 in 10.0 mi Calm Calm - N/A   Clear
12:53 PM 88.0 °F 48.9 °F 26% 29.92 in 10.0 mi Variable 4.6 mph - N/A   Clear
1:53 PM 90.0 °F 46.0 °F 22% 29.91 in 10.0 mi SW 5.8 mph - N/A   Clear
2:53 PM 93.0 °F 35.1 °F 13% 29.89 in 10.0 mi South 8.1 mph - N/A   Clear
3:53 PM 93.9 °F 37.0 °F 14% 29.87 in 10.0 mi SSW 9.2 mph - N/A   Clear
4:53 PM 95.0 °F 34.0 °F 12% 29.86 in 10.0 mi SSW 8.1 mph - N/A   Clear
5:53 PM 93.0 °F 34.0 °F 12% 29.85 in 10.0 mi SSW 9.2 mph - N/A   Clear
6:53 PM 89.1 °F 45.0 °F 22% 29.84 in 10.0 mi SSW 8.1 mph - N/A   Clear
7:53 PM 86.0 °F 44.1 °F 23% 29.84 in 10.0 mi SSW 6.9 mph - N/A   Clear
8:53 PM 79.0 °F 50.0 °F 36% 29.86 in 10.0 mi South 4.6 mph - N/A   Clear
9:53 PM 73.9 °F 51.1 °F 45% 29.88 in 10.0 mi SSW 3.5 mph - N/A   Clear
10:53 PM 71.1 °F 48.9 °F 45% 29.88 in 10.0 mi SW 6.9 mph - N/A   Clear
11:53 PM 66.9 °F 48.9 °F 52% 29.88 in 10.0 mi SW 8.1 mph - N/A   Clear